Terug naar catalogus

ICEYE-X58

ActiefWetenschapSSO
NORAD 66751·PAYLOAD·🇫🇮 Finland

Gelanceerd Nov 28, 2025 vanaf Vandenberg Space Force Base

Loading…

Volgende Passages (komende 24 uur)

TLE

VersSource: Space-Track

Epoch: Sep 14, 2026, 22:28 UTC

1 66751U 25276CP  26257.93635862  .00002164  00000-0  11113-3 0  9994
2 66751  97.4131 329.5298 0004104  44.7529 315.4035 15.17550135 44024

Volg ICEYE-X58 in realtime met AllMySat

Download on the App Store